Location: Mana�l
(15.0115°N, 12.5022°W)
Time: 11:47:09
(UTC+00:00)

NOSS 0 Rocket - Pass Details

Date: 07 June 2020
Orbit: 936 x 954 km, 70.0° (Epoch: 05 July)

Event Time Altitude Azimuth Distance (km) Brightness Sun altitude
Exits shadow 04:20:35 61° 203° (SSW) 1,055 3.8 -25.9°
Maximum altitude 04:21:46 87° 285° (WNW) 940 3.8 -25.7°
Drops below altitude 10° 04:27:54 10° 17° (NNE) 2,640 6.9 -24.4°
Sets 04:30:25 0° 17° (NNE) 3,584 7.7 -23.9°
